• In Hungary
  • List of Countries
  • For 7 days
  • Water Temperature
  • Satellite Maps
  • Weather Map
  • News
  • Weather Widgets
  • user-avatar
    Login

    Hourly Weather Lubstow

    Today, 16 July, Monday

    Time Temperature Precipitation Wind Pressure Humidity
    00:00 +18°C° 0.1 mm 2 mps 752 mmHg 89%
    01:00 +17°C° 0 mm 2 mps 751 mmHg 92%
    02:00 +17°C° 0.1 mm 2 mps 751 mmHg 92%
    03:00 +16°C° 0.1 mm 2 mps 751 mmHg 93%
    04:00 +16°C° 0.1 mm 3 mps 751 mmHg 93%
    05:00 +17°C° 0 mm 3 mps 751 mmHg 89%
    06:00 +19°C° 0 mm 3 mps 751 mmHg 84%
    07:00 +20°C° 0 mm 4 mps 751 mmHg 77%
    08:00 +21°C° 0.1 mm 4 mps 750 mmHg 72%
    09:00 +23°C° 0.1 mm 4 mps 750 mmHg 67%
    10:00 +26°C° 0.1 mm 4 mps 750 mmHg 62%
    11:00 +26°C° 0.6 mm 4 mps 750 mmHg 63%
    12:00 +26°C° 0.6 mm 4 mps 749 mmHg 64%
    13:00 +25°C° 0 mm 4 mps 749 mmHg 67%
    14:00 +25°C° 0.9 mm 4 mps 749 mmHg 70%
    15:00 +25°C° 0.9 mm 4 mps 749 mmHg 72%
    16:00 +25°C° 0.9 mm 3 mps 749 mmHg 74%
    17:00 +24°C° 0.9 mm 3 mps 748 mmHg 77%
    18:00 +22°C° 0.9 mm 3 mps 748 mmHg 80%
    19:00 +21°C° 0.9 mm 3 mps 748 mmHg 84%
    20:00 +21°C° 0.2 mm 3 mps 748 mmHg 86%
    21:00 +20°C° 0.2 mm 3 mps 748 mmHg 89%
    22:00 +19°C° 0.2 mm 3 mps 748 mmHg 92%
    23:00 +19°C° 0.2 mm 3 mps 748 mmHg 93%

    Tomorrow, 17 July, Tuesday

    Time Temperature Precipitation Wind Pressure Humidity
    00:00 +19°C° 0.2 mm 3 mps 748 mmHg 94%
    01:00 +19°C° 0.2 mm 3 mps 748 mmHg 96%
    02:00 +19°C° 1 mm 3 mps 747 mmHg 96%
    03:00 +19°C° 1 mm 3 mps 747 mmHg 96%
    04:00 +19°C° 1 mm 3 mps 747 mmHg 96%
    05:00 +19°C° 1.4 mm 3 mps 747 mmHg 95%
    06:00 +19°C° 1.4 mm 3 mps 747 mmHg 94%
    07:00 +19°C° 1.4 mm 3 mps 747 mmHg 94%
    08:00 +20°C° 1.2 mm 3 mps 747 mmHg 90%
    09:00 +21°C° 1.2 mm 3 mps 747 mmHg 87%
    10:00 +21°C° 1.2 mm 3 mps 747 mmHg 83%
    11:00 +22°C° 0.8 mm 4 mps 747 mmHg 80%
    12:00 +23°C° 0.8 mm 4 mps 747 mmHg 78%
    13:00 +23°C° 0.8 mm 4 mps 747 mmHg 75%
    14:00 +25°C° 0.5 mm 4 mps 747 mmHg 75%
    15:00 +25°C° 0.5 mm 4 mps 746 mmHg 75%
    16:00 +25°C° 0.5 mm 5 mps 746 mmHg 75%
    17:00 +23°C° 0.6 mm 4 mps 747 mmHg 80%
    18:00 +22°C° 0.6 mm 4 mps 747 mmHg 84%
    19:00 +21°C° 0.6 mm 3 mps 747 mmHg 89%
    20:00 +21°C° 0.1 mm 3 mps 747 mmHg 91%
    21:00 +20°C° 0.1 mm 3 mps 747 mmHg 93%
    22:00 +19°C° 0.1 mm 2 mps 747 mmHg 95%
    23:00 +19°C° 0.1 mm 2 mps 747 mmHg 96%

    Day after tomorrow, 18 July, Wednesday

    Time Temperature Precipitation Wind Pressure Humidity
    00:00 +19°C° 0.1 mm 3 mps 747 mmHg 96%
    01:00 +19°C° 0.1 mm 3 mps 747 mmHg 97%
    02:00 +19°C° 0.4 mm 3 mps 747 mmHg 97%
    03:00 +19°C° 0.4 mm 3 mps 747 mmHg 97%
    04:00 +19°C° 0.4 mm 3 mps 747 mmHg 97%
    05:00 +19°C° 0.4 mm 4 mps 748 mmHg 96%
    06:00 +19°C° 0.4 mm 4 mps 748 mmHg 96%
    07:00 +20°C° 0.4 mm 4 mps 748 mmHg 95%
    08:00 +20°C° 0.1 mm 4 mps 748 mmHg 92%
    09:00 +21°C° 0.1 mm 5 mps 748 mmHg 90%
    10:00 +22°C° 0.1 mm 5 mps 748 mmHg 87%
    11:00 +23°C° 0.1 mm 5 mps 748 mmHg 83%
    12:00 +24°C° 0.1 mm 6 mps 748 mmHg 79%
    13:00 +26°C° 0.1 mm 6 mps 748 mmHg 76%
    14:00 +26°C° 0.4 mm 6 mps 748 mmHg 75%
    15:00 +26°C° 0.4 mm 6 mps 748 mmHg 75%
    16:00 +26°C° 0.4 mm 6 mps 749 mmHg 75%
    17:00 +24°C° 0.4 mm 6 mps 749 mmHg 78%
    18:00 +23°C° 0.4 mm 5 mps 749 mmHg 82%
    19:00 +22°C° 0.4 mm 5 mps 749 mmHg 85%
    20:00 +21°C° 0.2 mm 5 mps 749 mmHg 87%
    21:00 +20°C° 0.2 mm 5 mps 750 mmHg 90%
    22:00 +19°C° 0.2 mm 5 mps 750 mmHg 92%
    23:00 +19°C° 0.1 mm 4 mps 750 mmHg 93%

    19 July, Thursday

    Time Temperature Precipitation Wind Pressure Humidity
    00:00 +19°C° 0.1 mm 4 mps 750 mmHg 94%
    01:00 +19°C° 0.1 mm 4 mps 750 mmHg 96%
    02:00 +19°C° 0.2 mm 4 mps 750 mmHg 96%
    03:00 +19°C° 0.2 mm 4 mps 750 mmHg 95%
    04:00 +19°C° 0.2 mm 4 mps 750 mmHg 95%
    05:00 +19°C° 0.2 mm 4 mps 750 mmHg 95%
    06:00 +19°C° 0.2 mm 4 mps 750 mmHg 94%
    07:00 +20°C° 0.2 mm 4 mps 750 mmHg 93%
    08:00 +20°C° 0.5 mm 4 mps 750 mmHg 93%
    09:00 +20°C° 0.5 mm 4 mps 750 mmHg 92%
    10:00 +20°C° 0.5 mm 4 mps 750 mmHg 92%
    11:00 +21°C° 0.5 mm 4 mps 750 mmHg 91%
    12:00 +21°C° 0.5 mm 4 mps 750 mmHg 89%
    13:00 +21°C° 0.5 mm 4 mps 750 mmHg 88%
    14:00 +22°C° 0.4 mm 4 mps 750 mmHg 87%
    15:00 +22°C° 0.4 mm 4 mps 750 mmHg 85%
    16:00 +22°C° 0.4 mm 4 mps 750 mmHg 84%
    17:00 +22°C° 0.7 mm 4 mps 750 mmHg 86%
    18:00 +21°C° 0.7 mm 3 mps 751 mmHg 88%
    19:00 +21°C° 0.7 mm 3 mps 751 mmHg 89%
    20:00 +20°C° 0.1 mm 3 mps 751 mmHg 91%
    21:00 +20°C° 0.1 mm 3 mps 751 mmHg 92%
    22:00 +19°C° 0.1 mm 3 mps 751 mmHg 93%
    23:00 +19°C° 0 mm 3 mps 751 mmHg 94%

    20 July, Friday

    Time Temperature Precipitation Wind Pressure Humidity
    00:00 +18°C° 0 mm 3 mps 751 mmHg 94%
    01:00 +18°C° 0 mm 3 mps 751 mmHg 94%
    02:00 +17°C° 0 mm 3 mps 751 mmHg 95%
    03:00 +17°C° 0 mm 3 mps 751 mmHg 95%
    04:00 +16°C° 0 mm 3 mps 751 mmHg 95%
    05:00 +17°C° 0 mm 3 mps 751 mmHg 90%
    06:00 +18°C° 0 mm 3 mps 751 mmHg 86%
    07:00 +19°C° 0 mm 3 mps 751 mmHg 81%
    08:00 +21°C° 0 mm 4 mps 751 mmHg 75%
    09:00 +22°C° 0 mm 4 mps 751 mmHg 69%
    10:00 +25°C° 0 mm 4 mps 751 mmHg 63%
    11:00 +25°C° 0 mm 5 mps 751 mmHg 61%
    12:00 +26°C° 0 mm 5 mps 751 mmHg 58%
    13:00 +27°C° 0 mm 5 mps 751 mmHg 56%
    14:00 +27°C° 0 mm 5 mps 750 mmHg 56%
    15:00 +27°C° 0 mm 5 mps 750 mmHg 56%
    16:00 +27°C° 0 mm 5 mps 750 mmHg 56%
    17:00 +26°C° 0 mm 4 mps 750 mmHg 61%
    18:00 +25°C° 0 mm 4 mps 750 mmHg 66%
    19:00 +24°C° 0 mm 3 mps 750 mmHg 72%
    20:00 +21°C° 0 mm 3 mps 750 mmHg 75%
    21:00 +20°C° 0 mm 3 mps 750 mmHg 78%
    22:00 +18°C° 0 mm 3 mps 751 mmHg 80%
    23:00 +18°C° 0 mm 3 mps 751 mmHg 81%

    21 July, Saturday

    Time Temperature Precipitation Wind Pressure Humidity
    00:00 +17°C° 0 mm 2 mps 750 mmHg 81%
    01:00 +16°C° 0 mm 2 mps 750 mmHg 82%
    02:00 +16°C° 0 mm 2 mps 750 mmHg 81%
    03:00 +15°C° 0 mm 1 mps 750 mmHg 81%
    04:00 +15°C° 0 mm 1 mps 750 mmHg 80%
    05:00 +16°C° 0 mm 1 mps 750 mmHg 76%
    06:00 +17°C° 0 mm 2 mps 750 mmHg 71%
    07:00 +18°C° 0 mm 2 mps 750 mmHg 67%
    08:00 +20°C° 0 mm 2 mps 750 mmHg 63%
    09:00 +21°C° 0 mm 2 mps 750 mmHg 58%
    10:00 +24°C° 0 mm 2 mps 750 mmHg 54%
    11:00 +24°C° 0 mm 2 mps 749 mmHg 51%
    12:00 +25°C° 0 mm 2 mps 749 mmHg 48%
    13:00 +26°C° 0 mm 3 mps 749 mmHg 46%
    14:00 +26°C° 0 mm 2 mps 749 mmHg 46%
    15:00 +26°C° 0 mm 2 mps 749 mmHg 46%
    16:00 +26°C° 0 mm 2 mps 748 mmHg 46%
    17:00 +25°C° 0 mm 2 mps 748 mmHg 51%
    18:00 +24°C° 0 mm 1 mps 748 mmHg 56%
    19:00 +23°C° 0 mm 1 mps 748 mmHg 60%
    20:00 +22°C° 0 mm 1 mps 748 mmHg 61%
    21:00 +21°C° 0 mm 1 mps 748 mmHg 62%
    22:00 +20°C° 0 mm 1 mps 748 mmHg 63%
    23:00 +19°C° 0 mm 2 mps 748 mmHg 66%
    Show more